When you browse on this site, cookies collect data to enhance your experience and personalize the content and advertising you see.
Visit our Privacy Policy to learn more. By continuing to use the site, you agree to this use of cookies and data.
  • In Österreich
  • Länderverzeichnis
  • Für 7 Tage
  • Wassertemperatur
  • Wetterkarte
  • News
  • Widgets
  • user-avatar
    Anmelden

    Stündliche Wetter Tolcayuca

    Heute, 23 August, Freitag

    Zeit Temperatur Niederschläge Wind Luftdruck Luftfeuchtigkeit
    00:00 +14°C° 0 mm 1 m/S 575 mmHg 89%
    01:00 +14°C° 0 mm 1 m/S 575 mmHg 89%
    02:00 +13°C° 0 mm 0 m/S 575 mmHg 90%
    03:00 +12°C° 0 mm 0 m/S 574 mmHg 90%
    04:00 +12°C° 0 mm 0 m/S 574 mmHg 90%
    05:00 +12°C° 0 mm 0 m/S 574 mmHg 91%
    06:00 +14°C° 0 mm 0 m/S 575 mmHg 84%
    07:00 +15°C° 0 mm 0 m/S 576 mmHg 77%
    08:00 +17°C° 0 mm 0 m/S 577 mmHg 71%
    09:00 +20°C° 0.2 mm 1 m/S 578 mmHg 65%
    10:00 +22°C° 0.2 mm 1 m/S 578 mmHg 60%
    11:00 +23°C° 0.2 mm 2 m/S 578 mmHg 54%
    12:00 +22°C° 1.3 mm 3 m/S 578 mmHg 55%
    13:00 +22°C° 1.3 mm 3 m/S 578 mmHg 56%
    14:00 +23°C° 1.3 mm 4 m/S 577 mmHg 57%
    15:00 +21°C° 1.8 mm 3 m/S 577 mmHg 63%
    16:00 +20°C° 1.8 mm 3 m/S 576 mmHg 70%
    17:00 +18°C° 1.8 mm 2 m/S 575 mmHg 77%
    18:00 +17°C° 2.2 mm 3 m/S 575 mmHg 81%
    19:00 +16°C° 2.2 mm 3 m/S 575 mmHg 85%
    20:00 +13°C° 2.2 mm 3 m/S 575 mmHg 89%
    21:00 +13°C° 0.2 mm 3 m/S 575 mmHg 89%
    22:00 +13°C° 0.2 mm 3 m/S 575 mmHg 88%
    23:00 +14°C° 0.2 mm 2 m/S 575 mmHg 87%

    Morgen, 24 August, Samstag

    Zeit Temperatur Niederschläge Wind Luftdruck Luftfeuchtigkeit
    00:00 +14°C° 0 mm 2 m/S 575 mmHg 86%
    01:00 +14°C° 0 mm 1 m/S 574 mmHg 85%
    02:00 +14°C° 0 mm 1 m/S 574 mmHg 84%
    03:00 +14°C° 0 mm 1 m/S 574 mmHg 84%
    04:00 +13°C° 0 mm 0 m/S 575 mmHg 83%
    05:00 +13°C° 0 mm 0 m/S 575 mmHg 82%
    06:00 +14°C° 0 mm 0 m/S 576 mmHg 77%
    07:00 +18°C° 0 mm 1 m/S 577 mmHg 72%
    08:00 +19°C° 0 mm 1 m/S 577 mmHg 68%
    09:00 +20°C° 0 mm 1 m/S 578 mmHg 61%
    10:00 +22°C° 0 mm 1 m/S 578 mmHg 55%
    11:00 +23°C° 0 mm 1 m/S 579 mmHg 49%
    12:00 +24°C° 0.2 mm 2 m/S 578 mmHg 49%
    13:00 +24°C° 0.2 mm 2 m/S 578 mmHg 48%
    14:00 +25°C° 0.2 mm 2 m/S 578 mmHg 48%
    15:00 +24°C° 0.8 mm 3 m/S 577 mmHg 54%
    16:00 +22°C° 0.8 mm 3 m/S 577 mmHg 59%
    17:00 +21°C° 0.8 mm 3 m/S 576 mmHg 65%
    18:00 +19°C° 1.7 mm 3 m/S 576 mmHg 71%
    19:00 +18°C° 1.7 mm 2 m/S 576 mmHg 76%
    20:00 +16°C° 1.7 mm 2 m/S 576 mmHg 81%
    21:00 +16°C° 0.1 mm 2 m/S 576 mmHg 81%
    22:00 +16°C° 0.1 mm 1 m/S 576 mmHg 82%
    23:00 +16°C° 0.1 mm 1 m/S 576 mmHg 82%

    übermorgen, 25 August, Sonntag

    Zeit Temperatur Niederschläge Wind Luftdruck Luftfeuchtigkeit
    00:00 +15°C° 0 mm 1 m/S 575 mmHg 83%
    01:00 +14°C° 0 mm 1 m/S 574 mmHg 83%
    02:00 +13°C° 0 mm 0 m/S 574 mmHg 84%
    03:00 +13°C° 0 mm 0 m/S 574 mmHg 84%
    04:00 +12°C° 0 mm 0 m/S 574 mmHg 84%
    05:00 +12°C° 0 mm 0 m/S 574 mmHg 84%
    06:00 +14°C° 0 mm 0 m/S 575 mmHg 77%
    07:00 +16°C° 0 mm 0 m/S 576 mmHg 70%
    08:00 +18°C° 0 mm 0 m/S 577 mmHg 63%
    09:00 +22°C° 0 mm 1 m/S 578 mmHg 58%
    10:00 +23°C° 0 mm 1 m/S 578 mmHg 53%
    11:00 +25°C° 0 mm 1 m/S 578 mmHg 48%
    12:00 +25°C° 0.6 mm 2 m/S 578 mmHg 48%
    13:00 +25°C° 0.6 mm 3 m/S 577 mmHg 49%
    14:00 +25°C° 0.6 mm 3 m/S 577 mmHg 49%
    15:00 +23°C° 1.2 mm 4 m/S 576 mmHg 56%
    16:00 +21°C° 1.2 mm 4 m/S 576 mmHg 62%
    17:00 +20°C° 1.2 mm 4 m/S 575 mmHg 69%
    18:00 +19°C° 0.2 mm 3 m/S 575 mmHg 71%
    19:00 +18°C° 0.2 mm 2 m/S 575 mmHg 73%
    20:00 +18°C° 0.2 mm 1 m/S 575 mmHg 74%
    21:00 +18°C° 0 mm 1 m/S 575 mmHg 75%
    22:00 +16°C° 0 mm 1 m/S 575 mmHg 76%
    23:00 +16°C° 0 mm 1 m/S 575 mmHg 76%

    26 August, Montag

    Zeit Temperatur Niederschläge Wind Luftdruck Luftfeuchtigkeit
    00:00 +16°C° 0 mm 1 m/S 575 mmHg 77%
    01:00 +14°C° 0 mm 0 m/S 574 mmHg 78%
    02:00 +14°C° 0 mm 0 m/S 574 mmHg 79%
    03:00 +14°C° 0 mm 0 m/S 574 mmHg 80%
    04:00 +14°C° 0 mm 0 m/S 574 mmHg 80%
    05:00 +14°C° 0 mm 0 m/S 574 mmHg 81%
    06:00 +15°C° 0 mm 0 m/S 575 mmHg 75%
    07:00 +17°C° 0 mm 0 m/S 575 mmHg 69%
    08:00 +18°C° 0 mm 0 m/S 576 mmHg 63%
    09:00 +20°C° 0.1 mm 0 m/S 577 mmHg 58%
    10:00 +21°C° 0.1 mm 0 m/S 577 mmHg 53%
    11:00 +23°C° 0.1 mm 0 m/S 577 mmHg 47%
    12:00 +25°C° 0.3 mm 1 m/S 577 mmHg 47%
    13:00 +25°C° 0.3 mm 2 m/S 577 mmHg 47%
    14:00 +25°C° 0.3 mm 2 m/S 576 mmHg 47%
    15:00 +24°C° 0.6 mm 3 m/S 576 mmHg 54%
    16:00 +21°C° 0.6 mm 3 m/S 575 mmHg 61%
    17:00 +20°C° 0.6 mm 3 m/S 574 mmHg 68%
    18:00 +18°C° 0.7 mm 2 m/S 574 mmHg 73%
    19:00 +17°C° 0.7 mm 2 m/S 574 mmHg 77%
    20:00 +15°C° 0.7 mm 1 m/S 574 mmHg 82%
    21:00 +15°C° 0 mm 1 m/S 574 mmHg 82%
    22:00 +14°C° 0 mm 1 m/S 574 mmHg 83%
    23:00 +13°C° 0 mm 0 m/S 574 mmHg 83%

    27 August, Dienstag

    Zeit Temperatur Niederschläge Wind Luftdruck Luftfeuchtigkeit
    00:00 +13°C° 0 mm 0 m/S 574 mmHg 83%
    01:00 +12°C° 0 mm 0 m/S 573 mmHg 83%
    02:00 +12°C° 0 mm 0 m/S 573 mmHg 83%
    03:00 +12°C° 0 mm 0 m/S 573 mmHg 83%
    04:00 +12°C° 0 mm 0 m/S 573 mmHg 83%
    05:00 +12°C° 0 mm 0 m/S 573 mmHg 83%
    06:00 +13°C° 0 mm 0 m/S 574 mmHg 76%
    07:00 +15°C° 0 mm 0 m/S 575 mmHg 70%
    08:00 +17°C° 0 mm 0 m/S 576 mmHg 63%
    09:00 +18°C° 0 mm 0 m/S 577 mmHg 58%
    10:00 +22°C° 0 mm 1 m/S 577 mmHg 53%
    11:00 +24°C° 0 mm 1 m/S 578 mmHg 47%
    12:00 +24°C° 0.3 mm 2 m/S 577 mmHg 49%
    13:00 +24°C° 0.3 mm 3 m/S 577 mmHg 50%
    14:00 +23°C° 0.3 mm 4 m/S 576 mmHg 52%
    15:00 +22°C° 1.2 mm 4 m/S 576 mmHg 57%
    16:00 +21°C° 1.2 mm 4 m/S 576 mmHg 63%
    17:00 +20°C° 1.2 mm 3 m/S 575 mmHg 68%
    18:00 +19°C° 0.4 mm 3 m/S 576 mmHg 71%
    19:00 +18°C° 0.4 mm 3 m/S 576 mmHg 74%
    20:00 +17°C° 0.4 mm 2 m/S 576 mmHg 77%
    21:00 +16°C° 0.1 mm 2 m/S 576 mmHg 78%
    22:00 +16°C° 0.1 mm 1 m/S 576 mmHg 79%
    23:00 +15°C° 0.1 mm 1 m/S 576 mmHg 80%

    28 August, Mittwoch

    Zeit Temperatur Niederschläge Wind Luftdruck Luftfeuchtigkeit
    00:00 +15°C° 0.1 mm 1 m/S 576 mmHg 81%
    01:00 +14°C° 0.1 mm 1 m/S 575 mmHg 81%
    02:00 +13°C° 0.1 mm 0 m/S 575 mmHg 82%
    03:00 +13°C° 0 mm 0 m/S 575 mmHg 82%
    04:00 +13°C° 0 mm 0 m/S 575 mmHg 83%
    05:00 +13°C° 0 mm 1 m/S 575 mmHg 83%
    06:00 +14°C° 0 mm 0 m/S 576 mmHg 77%
    07:00 +15°C° 0 mm 0 m/S 577 mmHg 72%
    08:00 +17°C° 0 mm 0 m/S 578 mmHg 66%
    09:00 +21°C° 0.1 mm 1 m/S 578 mmHg 59%
    10:00 +22°C° 0.1 mm 1 m/S 579 mmHg 53%
    11:00 +24°C° 0.1 mm 2 m/S 579 mmHg 46%
    12:00 +22°C° 0.5 mm 3 m/S 578 mmHg 49%
    13:00 +22°C° 0.5 mm 4 m/S 578 mmHg 52%
    14:00 +22°C° 0.5 mm 5 m/S 577 mmHg 55%
    15:00 +21°C° 1.4 mm 4 m/S 577 mmHg 61%
    16:00 +20°C° 1.4 mm 4 m/S 576 mmHg 67%
    17:00 +19°C° 1.4 mm 4 m/S 576 mmHg 72%
    18:00 +18°C° 0.4 mm 4 m/S 576 mmHg 76%
    19:00 +16°C° 0.4 mm 3 m/S 576 mmHg 80%
    20:00 +14°C° 0.4 mm 3 m/S 576 mmHg 84%
    21:00 +15°C° 0.1 mm 2 m/S 576 mmHg 85%
    22:00 +14°C° 0.1 mm 2 m/S 576 mmHg 87%
    23:00 +14°C° 0.1 mm 1 m/S 576 mmHg 89%
    Mehr zeigen